Location: Ciula Mare
(45.6000°N, 22.8167°E)
Time: 11:43:32
(UTC+00:00)

Cosmos 2278 - Pass Details

Date: 03 February 2023
Orbit: 838 x 853 km, 71.1° (Epoch: 20 March)

Event Time Altitude Azimuth Distance (km) Brightness Sun altitude
Rises 16:17:08 0° 211° (SSW) 3,386 7.6 -7.4°
Reaches altitude 10° 16:19:34 10° 214° (SW) 2,457 6.9 -7.8°
Maximum altitude 16:25:12 70° 298° (WNW) 900 4.0 -8.7°
Drops below altitude 10° 16:30:54 10° 22° (NNE) 2,484 5.8 -9.7°
Sets 16:33:23 0° 25° (NNE) 3,426 6.5 -10.1°
